Regional Weather Roundup
Issued by NWS

Home | Current Version | Previous Version | Graphics & Text | Print | Product List | Glossary On
Versions: 1 2 3 4 5 6 7 8 9 10 11 12 13 14 15 16 17 18 19 20 21 22 23 24 25 26 27 28 29 30 31 32 33 34 35 36 37 38 39 40 41 42 43 44 45 46 47 48 49 50
000
ASUS45 KCYS 121610
RWRWY

WYOMING REGIONAL WEATHER ROUNDUP
NATIONAL WEATHER SERVICE CHEYENNE WY
900 AM MST FRI FEB 12 2016

NOTE:  "FAIR" INDICATES FEW OR NO CLOUDS BELOW 12,000 FEET
WITH NO SIGNIFICANT WEATHER AND/OR OBSTRUCTIONS TO VISIBILITY.

WYZ001-121700-
YELLOWSTONE NATIONAL PARK

CITY           SKY/WX    TMP DP  RH WIND       PRES   REMARKS
LK YELLOWSTONE   N/A     31  28  89 CALM      30.36F
W YELLOWSTONE  NOT AVBL

$$
WYZ002>013-054>058-071-098>099-121700-
NORTHERN WYOMING

CITY           SKY/WX    TMP DP  RH WIND       PRES   REMARKS
JACKSON        CLOUDY    21  21 100 CALM      30.37S VSB 1/4
CODY           PTSUNNY   37  25  60 CALM      30.25S
GREYBULL       CLOUDY    36  29  75 CALM      30.27R
WORLAND        CLOUDY    36  30  79 SW5       30.26S WCI  32
SHERIDAN       CLOUDY    33  28  81 CALM      30.31R
BUFFALO        PTSUNNY   33  28  81 S7        30.29F WCI  27
GILLETTE       CLOUDY    29  27  92 SE7       30.33R WCI  22
HULETT         CLOUDY    32  28  86 MISG      30.34S
NEWCASTLE      FAIR      30  28  93 SE10      30.34R WCI  21

$$
WYZ014>020-022>026-101>103-121700-
CENTRAL WYOMING

CITY           SKY/WX    TMP DP  RH WIND       PRES   REMARKS
BIG PINEY      FAIR      23  19  85 E3        30.38R
PINEDALE         N/A     27  23  86 NW3       30.39R
DUBOIS         FAIR      41  25  52 NW21      30.26F
LANDER         FAIR      31  24  75 N3        30.25S
RIVERTON       FAIR      35  25  66 CALM      30.27S
CASPER         CLOUDY    34  28  79 SE3       30.30S
DOUGLAS        CLOUDY    35  30  82 CALM      30.34R

$$
WYZ021-027>030-104>119-121700-
SOUTHERN WYOMING

CITY           SKY/WX    TMP DP  RH WIND       PRES   REMARKS
EVANSTON       FAIR      35  15  44 SE6       30.39R WCI  30
FORT BRIDGER   SUNNY     36  19  51 W9        30.40S WCI  29
ROCK SPRINGS   FAIR      34  20  56 S3        30.38S
DIXON          FAIR      22  15  74 CALM      30.44S
RAWLINS        FAIR      36  20  52 SW16      30.34S WCI  26
SARATOGA       CLOUDY    41  19  42 SW12G20   30.36S
LARAMIE        PTSUNNY   42  27  55 N9        30.31R
CHEYENNE       CLOUDY    39  27  62 S3        30.31R
TORRINGTON     CLOUDY    34  29  82 W6        30.33R WCI  29
PINE BLUFFS    CLOUDY    37  32  81 CALM      30.33R

$$



USA.gov is the U.S. government's official web portal to all federal, state and local government web resources and services.